TimeCST,TemperatureF,Dew PointF,Humidity,Sea Level PressureIn,VisibilityMPH,Wind Direction,Wind SpeedMPH,Gust SpeedMPH,PrecipitationIn,Events,Conditions,WindDirDegrees,DateUTC
12:54 AM,42.1,30.0,62,30.43,10.0,SE,5.8,-,N/A,,Clear,130,2012-11-17 06:54:00
1:54 AM,41.0,30.0,65,30.43,10.0,SE,5.8,-,N/A,,Clear,140,2012-11-17 07:54:00
2:54 AM,39.9,30.0,68,30.43,10.0,ESE,8.1,-,N/A,,Clear,120,2012-11-17 08:54:00
3:54 AM,39.0,28.9,67,30.44,10.0,SE,4.6,-,N/A,,Clear,130,2012-11-17 09:54:00
4:54 AM,37.9,28.0,68,30.45,10.0,SE,5.8,-,N/A,,Clear,140,2012-11-17 10:54:00
5:54 AM,37.0,28.0,70,30.45,10.0,SE,6.9,-,N/A,,Clear,130,2012-11-17 11:54:00
6:54 AM,35.1,27.0,72,30.46,10.0,SE,4.6,-,N/A,,Clear,140,2012-11-17 12:54:00
7:54 AM,39.0,28.9,67,30.47,10.0,ESE,8.1,-,N/A,,Clear,120,2012-11-17 13:54:00
8:54 AM,44.1,32.0,63,30.48,10.0,SSE,8.1,-,N/A,,Clear,150,2012-11-17 14:54:00
9:54 AM,48.9,32.0,52,30.48,10.0,SSE,9.2,-,N/A,,Clear,160,2012-11-17 15:54:00
10:54 AM,53.1,30.0,41,30.47,10.0,Variable,6.9,-,N/A,,Clear,0,2012-11-17 16:54:00
11:54 AM,57.0,27.0,32,30.43,10.0,SSE,8.1,-,N/A,,Clear,160,2012-11-17 17:54:00
12:54 PM,57.9,28.9,33,30.41,10.0,SSE,11.5,-,N/A,,Clear,150,2012-11-17 18:54:00
1:54 PM,60.1,28.9,31,30.39,10.0,SE,6.9,-,N/A,,Clear,140,2012-11-17 19:54:00
2:54 PM,59.0,28.4,31,30.36,10.0,SE,6.9,-,N/A,,Clear,140,2012-11-17 20:54:00
3:54 PM,57.9,28.9,33,30.37,10.0,ESE,8.1,-,N/A,,Clear,120,2012-11-17 21:54:00
4:54 PM,55.0,27.0,34,30.35,10.0,ESE,6.9,-,N/A,,Clear,120,2012-11-17 22:54:00
5:54 PM,52.0,25.0,35,30.35,10.0,ESE,5.8,-,N/A,,Clear,110,2012-11-17 23:54:00
6:54 PM,48.0,27.0,44,30.36,10.0,East,9.2,-,N/A,,Clear,100,2012-11-18 00:54:00
7:54 PM,48.0,27.0,44,30.37,10.0,ESE,6.9,-,N/A,,Clear,110,2012-11-18 01:54:00
8:54 PM,46.9,27.0,46,30.37,10.0,ESE,8.1,-,N/A,,Clear,120,2012-11-18 02:54:00
9:54 PM,45.0,27.0,49,30.37,10.0,ESE,8.1,-,N/A,,Clear,110,2012-11-18 03:54:00
10:54 PM,44.1,28.0,53,30.36,10.0,ESE,9.2,-,N/A,,Clear,120,2012-11-18 04:54:00
11:54 PM,42.1,28.0,58,30.37,10.0,SE,9.2,-,N/A,,Clear,130,2012-11-18 05:54:00